Regional Weather Roundup
Issued by NWS

Home | Current Version | Previous Version | Graphics & Text | Print | Product List | Glossary On
Versions: 1 2 3 4 5 6 7 8 9 10 11 12 13 14 15 16 17 18 19 20 21 22 23 24 25 26 27 28 29 30 31 32 33 34 35 36 37 38 39 40 41 42 43 44 45 46 47 48 49 50
000
ASUS43 KMKX 290700
RWRWI

WISCONSIN REGIONAL WEATHER ROUNDUP
NATIONAL WEATHER SERVICE MILWAUKEE/SULLIVAN WI
200 AM CDT SAT APR 29 2017

NOTE: "FAIR" INDICATES FEW OR NO CLOUDS BELOW 12,000 FEET WITH NO
SIGNIFICANT WEATHER AND/OR OBSTRUCTIONS TO VISIBILITY.

WIZ001-002-006>008-014>016-023>028-290800-
NORTHWEST WISCONSIN

CITY           SKY/WX    TMP DP  RH WIND       PRES   REMARKS
SUPERIOR ARPT  CLEAR     30  27  90 CALM      30.21R
ASHLAND        CLEAR     28  26  92 SW5       30.22R WCI  23
HAYWARD        CLEAR     28  25  88 CALM      30.21R
SIREN          CLEAR     37  27  69 CALM      30.22R
CUMBERLAND     CLOUDY    34  28  80 NE8       30.19R WCI  27
RICE LAKE      CLOUDY    37  28  72 N10       30.20R WCI  29
CHETEK         CLOUDY    37  29  73 NE5       30.19R WCI  33
LADYSMITH      CLEAR     34  28  77 N6        30.19R WCI  29
EAU CLAIRE     NOT AVBL
MENOMONIE      CLOUDY    34  32  90 N6        30.16R WCI  29
NEW RICHMOND   CLOUDY    37  28  69 N9        30.16R WCI  31
OSCEOLA        CLOUDY    39  28  66 N7        30.21R WCI  34
$$

WIZ003>005-009-010-017-018-290800-
NORTH CENTRAL WISCONSIN

CITY           SKY/WX    TMP DP  RH WIND       PRES   REMARKS
MANITOWISH WTR NOT AVBL
ARBOR VITAE    CLEAR     32  29  90 CALM      30.13S
WOODRUFF       CLEAR     32  29  90 CALM      30.13S
RHINELANDER    CLEAR     30  26  85 CALM      30.15R
EAGLE RIVER    CLEAR     28  24  84 N3        30.13R
LAND O LAKES   CLOUDY    30  27  86 NW5       30.16R WCI  25
PHILLIPS       CLEAR     29  26  88 CALM      30.14S
TOMAHAWK       CLEAR     28  26  91 CALM      30.15R
MEDFORD        CLOUDY    32  28  83 N6        30.15R WCI  26
MERRILL        CLOUDY    32  28  85 N5        30.14R WCI  27
$$

WIZ029-030-035-036-043>047-290800-
CENTRAL WISCONSIN

CITY           SKY/WX    TMP DP  RH WIND       PRES   REMARKS
WAUSAU         CLOUDY    34  27  75 N6        30.14R WCI  29
MOSINEE        PTCLDY    36  30  80 N8        30.15R WCI  29
MARSHFIELD     CLOUDY    37  28  70 NE13      30.13R WCI  29
STEVENS POINT  PTCLDY    34  31  90 CALM      30.14R
WAUPACA        MOCLDY    44  32  63 CALM      30.12S
WAUTOMA        CLOUDY    44  30  57 NE6       30.12R
WISC RAPIDS    CLOUDY    37  31  78 NE5       30.14R WCI  33
CAMP DOUGLAS   NOT AVBL
$$

WIZ011>013-019>022-031-037>040-048>050-290800-
NORTHEAST WISCONSIN

CITY           SKY/WX    TMP DP  RH WIND       PRES   REMARKS
ANTIGO         CLOUDY    31  26  81 N8        30.12R WCI  23
SHAWANO        CLOUDY    40  32  71 N10       30.14R WCI  34
OCONTO         NOT AVBL
STURGEON BAY   PTCLDY    39  30  70 N16G23    30.13R WCI  30
GREEN BAY      CLOUDY    44  31  60 N10       30.12R
MANITOWOC      NOT AVBL
APPLETON       CLOUDY    43  28  56 N12       30.09S
CLINTONVILLE   CLOUDY    41  30  65 N5        30.12R
OSHKOSH        CLOUDY    44  29  55 N16       30.10S
$$

WIZ032>034-041-042-053>061-290800-
SOUTHWEST WISCONSIN

CITY           SKY/WX    TMP DP  RH WIND       PRES   REMARKS
LA CROSSE      PTCLDY    40  33  76 N5        30.13S
SPARTA         PTCLDY    39  35  84 N3        30.12S
VIROQUA        CLOUDY    39  34  81 N6        30.10R
BOSCOBEL       PTCLDY    45  36  70 N6        30.08F
PRAIRIE DU CHI CLOUDY    44  36  75 NW5       30.09S
PLATTEVILLE    CLOUDY    44  41  89 N10       30.04F
$$

WIZ056-057-062-063-064-067-068-290800-
SOUTH CENTRAL WISCONSIN

CITY           SKY/WX    TMP DP  RH WIND       PRES   REMARKS
REEDSBURG      CLOUDY    43  36  77 N8        30.09R
BARABOO/DELLS  MOCLDY    43  35  73 N6        30.09R
LONE ROCK      NOT AVBL
MINERAL POINT  CLOUDY    45  41  87 N9        30.04F
MADISON        CLOUDY    44  38  79 N12       30.04F
MIDDLETON      CLOUDY    46  38  75 N8        30.05F
WATERTOWN      CLOUDY    45  42  91 N7        30.02F
MONROE         CLOUDY    43  39  87 N14       30.01S
JANESVILLE     CLOUDY    46  41  81 NE12G17   30.02R
$$

WIZ051-052-058>065-066-070>072-290800-
SOUTHEAST WISCONSIN

CITY           SKY/WX    TMP DP  RH WIND       PRES   REMARKS
MILWAUKEE      CLOUDY    44  41  89 N9        30.05R
WAUKESHA       CLOUDY    43  37  81 N10       30.04F
MILWAUKEE/TIMM CLOUDY    45  37  76 N9        30.03F
RACINE         CLOUDY    42  37  82 NE12      30.06R
KENOSHA        CLOUDY    44  39  82 NE8       30.04R
FOND DU LAC    CLOUDY    45  30  55 N17G29    30.09F
SHEBOYGAN      CLOUDY    43  38  82 N9        30.06F
WEST BEND      CLOUDY    43  39  87 N12G24    30.04F
JUNEAU         CLOUDY    44  37  78 N9        30.06F
$$

LSZ147-162-290800-
LAKE SUPERIOR

STATION/POSITION TIME  TEMP    WIND        PRES    WAVE
                       AIR SEA DIR/SP/G            HT/PER
                 (UTC) (F)     (DEG/KT/KT) (MB)    (FT/S)
DEVILS ISLAND    0600   37     310/  5/  5 1022.7R
PORT WING        0640   30     150/  4/  4 1023.0R
SAXON HARBOR     0640   29     190/  3/  4 1022.4R
$$

LMZ867-665-643>646-290800-
LAKE MICHIGAN

STATION/POSITION TIME  TEMP    WIND        PRES    WAVE
                       AIR SEA DIR/SP/G            HT/PER
                 (UTC) (F)     (DEG/KT/KT) (MB)    (FT/S)
CHAMBERS ISLAND  0640   38     330/ 18/ 21 1019.6R
N MID LAKE BUOY  0550   38 37   10/  2/  2 1020.3R   1/ 4
NORTHPORT PIER   0640   38     340/ 19/ 22 1019.6R
SISTER BAY       0606   39     350/ 23/ 27   N/A
KEWAUNEE LAKESHO 0630   43     350/  5/  7 1019.2R
SHEBOYGAN LAKESH 0600   42      10/ 12/ 13 1019.0R
PORT WASHINGTON  0630   45      20/ 10/ 15 1018.3F
MILWAUKEE LAKESH 0630   43      30/  9/ 10   N/A
S MID LAKE BUOY  0550   43 41   20/ 14/ 16 1017.2S   2/ 4
KENOSHA   LAKESH 0600   43      10/ 18/ 19 1016.6
$$

TC  - TEMPERATURE IN CELSIUS
VSB - VISIBILITY IN STATUTE MILES
WCI - WIND CHILL INDEX
HX  - HEAT INDEX





USA.gov is the U.S. government's official web portal to all federal, state and local government web resources and services.